Regional Weather Roundup
Issued by NWS

Home | Current Version | Previous Version | Text Only | Print | Product List | Glossary Off
Versions: 1 2 3 4 5 6 7 8 9 10 11 12 13 14 15 16 17 18 19 20 21 22 23 24 25 26 27 28 29 30 31 32 33 34 35 36 37 38 39 40 41 42 43 44 45 46 47 48 49 50

872
ASUS45 KBOI 252210
RWRID

IDAHO REGIONAL WEATHER ROUNDUP
NATIONAL WEATHER SERVICE BOISE ID
300 PM MST SAT FEB 25 2017

NOTE: "FAIR" INDICATES FEW OR NO CLOUDS BELOW 12000 FEET
WITH NO SIGNIFICANT WEATHER AND/OR OBSTRUCTIONS TO VISIBILITY

IDZ012-014-252300-
SOUTHWEST IDAHO


CITY           SKY/WX    TMP DP  RH WIND       PRES   REMARKS
BOISE          SUNNY     38  15  39 W9        30.07F WCI  31
CALDWELL       SUNNY     40  16  37 VRB3      30.09F
MOUNTAIN HOME  SUNNY     38  15  39 NW9       30.07F WCI  31
$$

IDZ016-017-252300-
SOUTHCENTRAL IDAHO


CITY           SKY/WX    TMP DP  RH WIND       PRES   REMARKS
BURLEY         MIX PCPN  32  14  47 W15       30.01F WCI  22
JEROME           N/A    N/A N/A N/A MISG      30.04F
TWIN FALLS     SUNNY     28  14  55 W10       30.04F WCI  19
$$

IDZ019>023-252300-
SOUTHEAST IDAHO


CITY           SKY/WX    TMP DP  RH WIND       PRES   REMARKS
IDAHO FALLS    MOSUNNY   20  11  68 SW18      29.97F WCI   5
POCATELLO      MOSUNNY   25  15  66 W18       30.01F WCI  11
REXBURG        SUNNY     20  11  68 SW12      29.94F WCI   8
$$

IDZ006-010-011-018-031-032-252300-
CENTRAL IDAHO MOUNTAINS


CITY           SKY/WX    TMP DP  RH WIND       PRES   REMARKS
MCCALL         CLOUDY    24  12  60 CALM      29.94F
HAILEY         MOSUNNY   23  12  63 SE12      29.95F WCI  12
STANLEY          N/A     21   6  52 NW12      29.88F WCI   9
SALMON         CLOUDY    32  10  40 SW15      29.90F WCI  22
CHALLIS        CLOUDY    24  11  57 S7        29.89F WCI  16
$$

IDZ002-004-006-007-026-252300-
NORTHERN IDAHO


CITY           SKY/WX    TMP DP  RH WIND       PRES   REMARKS
LEWISTON       CLOUDY    39  21  48 MISG      30.05F
LOWELL           N/A     40  21  46 VRB5      30.07F
COEUR D`ALENE  CLOUDY    33  23  66 SW12      30.00F WCI  24
MULLAN PASS    LGT SNOW  15  12  88 VRB3      29.79F FOG
$$




USA.gov is the U.S. government's official web portal to all federal, state and local government web resources and services.